DW6574 Weather Reports


time (UTC)temp
C
wind
direction
speed
KPH
gust
KPH
rain 1hr
cm
rain 24hr
cm
rain mn
cm
humidity
%
barometer
mb
20260503024536 8 131 0.0 0.0 0.00 0.20 0.20 91 1010.0
20260503023029 8 131 0.0 1.6 0.00 0.20 0.20 91 1010.0
20260503021528 8 131 0.0 1.6 0.00 0.20 0.20 91 1010.0
20260503020028 8 56 0.0 0.0 0.00 0.20 0.20 91 1010.2
20260503014530 8 56 0.0 0.0 0.00 0.20 0.20 91 1010.5
20260503013028 8 237 0.0 1.6 0.00 0.20 0.20 90 1010.3
20260503011533 8 237 0.0 0.0 0.00 0.20 0.20 90 1010.2
20260503010030 8 237 0.0 0.0 0.00 0.20 0.20 89 1010.0
20260503004526 8 237 0.0 0.0 0.00 0.20 0.20 89 1009.8
20260503003025 8 237 0.0 0.0 0.00 0.20 0.20 89 1009.8
20260503001525 8 237 0.0 0.0 0.00 0.20 0.20 88 1009.8
20260503000024 8 237 0.0 0.0 0.00 0.20 0.20 88 1009.8
20260502234534 9 237 0.0 1.6 0.00 0.20 0.20 88 1009.8
20260502233024 9 214 0.0 0.0 0.00 0.20 0.20 88 1009.7
20260502231523 9 236 0.0 0.0 0.00 0.20 0.20 88 1009.7
20260502230022 9 242 0.0 0.0 0.00 0.20 0.20 87 1009.6
20260502224522 9 242 0.0 3.2 0.03 0.20 0.20 86 1009.6
20260502223022 10 158 0.0 1.6 0.03 0.20 0.20 85 1009.5
20260502221521 10 196 0.0 0.0 0.03 0.20 0.20 84 1009.8
20260502220027 10 148 0.0 0.0 0.03 0.20 0.20 82 1009.8
20260502214520 10 138 0.0 1.6 0.00 0.18 0.18 81 1009.9
20260502213028 11 151 0.0 1.6 0.00 0.18 0.18 78 1009.8
20260502211520 11 308 0.0 9.7 0.00 0.18 0.18 75 1009.8
20260502210022 12 180 1.6 6.4 0.00 0.18 0.18 71 1009.4
20260502204517 12 218 4.8 19.3 0.00 0.18 0.18 68 1009.4
20260502203016 13 261 4.8 16.1 0.00 0.18 0.18 66 1009.3
20260502201514 13 195 3.2 19.3 0.00 0.18 0.18 68 1009.6
20260502200012 12 227 6.4 16.1 0.00 0.18 0.18 66 1009.6
20260502194518 12 233 4.8 17.7 0.00 0.18 0.18 62 1009.8
20260502193008 12 271 4.8 16.1 0.00 0.18 0.18 60 1010.0
20260502191506 12 205 8.0 24.1 0.00 0.18 0.18 57 1010.4
20260502190004 12 157 1.6 16.1 0.00 0.18 0.18 73 1010.3
20260502184508 12 141 8.0 20.9 0.00 0.18 0.18 72 1010.3
20260502183004 11 238 4.8 17.7 0.00 0.18 0.18 76 1010.3
20260502181504 11 211 6.4 12.9 0.00 0.18 0.18 77 1010.2
20260502180115 11 205 3.2 12.9 0.00 0.18 0.18 75 1010.4
20260502163108 12 307 1.6 9.7 0.00 0.18 0.18 69 1010.8
20260502161551 12 254 0.0 3.2 0.00 0.18 0.18 72 1010.9
20260502151551 11 153 1.6 11.3 0.00 0.18 0.18 79 1011.4
20260502123034 9 271 1.6 4.8 0.00 0.03 0.03 82 1012.5
20260502121530 9 193 0.0 1.6 0.00 0.03 0.03 84 1012.1
20260502114524 8 204 0.0 0.0 0.03 0.03 0.03 87 1011.5
20260502113022 8 208 0.0 1.6 0.03 0.03 0.03 86 1011.5
20260502111520 8 208 0.0 0.0 0.03 0.03 0.03 87 1011.6
20260502110019 7 227 0.0 0.0 0.03 0.03 0.03 85 1011.6
20260502104518 7 203 0.0 3.2 0.00 0.00 0.00 84 1011.5
20260502103018 7 209 0.0 1.6 0.00 0.00 0.00 85 1011.2
20260502101518 7 209 0.0 1.6 0.00 0.00 0.00 85 1011.2
20260502091515 7 221 0.0 1.6 0.00 0.00 0.00 83 1010.7
20260502071507 8 219 0.0 1.6 0.00 0.00 0.00 77 1010.9
20260502070104 7 200 0.0 4.8 0.00 0.00 0.00 78 1010.8
20260502064501 7 212 0.0 0.0 0.00 0.00 0.00 77 1011.3
20260502063059 7 205 0.0 1.6 0.00 0.00 0.00 77 1011.1
20260502061558 7 215 0.0 1.6 0.00 0.00 0.00 77 1010.9
20260502060101 7 233 0.0 1.6 0.00 0.00 0.00 76 1010.9
20260502054557 6 207 0.0 1.6 0.00 0.00 0.00 77 1011.0
20260502053053 7 248 0.0 1.6 0.00 0.00 0.00 73 1011.0
20260502051552 7 256 0.0 1.6 0.00 0.00 0.00 74 1011.0
20260502050056 7 250 0.0 0.0 0.00 0.00 0.00 74 1011.0
20260502044554 7 212 0.0 1.6 0.00 0.00 0.00 75 1011.0
20260502043055 7 212 0.0 1.6 0.00 0.00 0.00 76 1011.2
20260502041550 7 224 0.0 1.6 0.00 0.00 0.00 73 1011.1
20260502040044 7 207 0.0 1.6 0.00 0.00 0.00 74 1011.1
20260502034543 7 193 0.0 0.0 0.00 0.00 0.00 74 1011.1
20260502033045 7 199 0.0 0.0 0.00 0.00 0.00 72 1011.3
20260502031541 7 205 0.0 3.2 0.00 0.00 0.00 71 1011.2
20260502030040 7 210 0.0 4.8 0.00 0.00 0.00 69 1010.9